[[{"header":{"parameterUnit":"m.s-1","parameterCategory":1,"la1":30.2991,"la2":30.254,"lo1":-89.0895,"lo2":-89.0444,"dy":0.0017,"dx":0.0017,"nx":28,"ny":28,"refTime":"2023-09-30T09:00:00:Z","depth":0,"parameterNumber":2,"parameterNumberName":"U-component_of_WINDS"},"data":[0,0,0,0,0,0,0,0,0,0,0,0,0,0,0,0,0,0,0,0,0,0,0,0,0,0,0,0,0,0,0,0,0,0,0,0,0,0,0,0,0,0,0,0,0,0,0,0,0,0,0,0,0,0,0,0,0,0,-2.998,-2.9982,0,-3.0102,-3.0103,-3.0105,-3.0043,-3.0039,-3.0036,-3.0033,-3.0161,-3.0167,-3.0173,0,0,0,0,0,0,0,0,0,0,0,0,0,-2.9697,-2.9703,-2.998,-2.9982,-2.9983,-3.0102,-3.0103,-3.0105,-3.0043,-3.0039,-3.0035,-3.0032,-3.0159,-3.0166,-3.0174,0,0,0,0,0,0,0,0,0,0,0,0,0,-2.982,-2.9704,-2.998,-2.9967,-2.9967,-3.0101,-3.0103,-3.0106,-3.0044,-3.0039,-3.0034,-3.003,-3.0156,-3.0165,-3.0175,-3.0331,0,0,-3.0204,-3.0208,0,0,0,0,0,0,0,0,-2.9813,-2.983,-2.9967,-2.9968,-2.9968,-3.0052,-3.005,-3.0181,-3.0045,-3.0015,-3.0033,-3.0027,-3.0129,-3.014,-3.0174,-3.0337,-3.0342,-3.0205,-3.0211,-3.0215,-3.0218,0,0,0,0,0,0,0,-2.9804,-2.9825,-3.0028,-2.9969,-2.997,-2.9955,-2.9968,-3.0075,-3.0097,-3.0017,-3.0013,-3.0028,-3.0128,-3.0165,-3.0176,-3.0344,-3.0205,-3.0213,-3.0219,-3.0223,-3.0643,-3.0648,0,0,0,0,0,0,-2.9796,-2.9818,-3.0025,-3.0032,-2.9877,-2.9964,-2.9978,-3.003,-3.0096,-3.0101,-3.0032,-3.0025,-3.0151,-3.0165,-3.0181,-3.0369,-3.0215,-3.0224,-3.0229,-3.0637,-3.0644,-3.065,0,0,0,0,0,0,-2.979,-2.9815,-3.002,-2.9924,-2.9949,-2.9974,-3.0034,-3.0035,-3.0072,-3.0107,-3.0111,-3.0065,-3.0147,-3.0167,-3.0294,-3.0373,-3.0228,-3.0237,-3.0631,-3.0639,-3.0647,-3.0747,0,0,0,0,0,0,-2.9782,-2.9813,-2.9873,-2.9926,-2.9954,-3.0131,-3.0038,-3.0041,-3.0088,-3.008,-3.0139,-3.0145,-3.0145,-3.028,-3.0304,-3.0383,-3.0244,-3.0624,-3.0635,-3.0644,-3.0737,-3.0758,-3.0775,0,0,0,0,0,-2.9773,-2.9896,-2.9876,-2.9901,-3.0028,-3.0135,-3.0152,-3.0149,-3.0094,-3.0155,-3.0177,-3.0143,-3.036,-3.0294,-3.032,-3.0404,-3.0619,-3.0632,-3.0644,-3.0728,-3.0754,-3.0775,0,0,0,0,0,0,-2.9853,-2.9903,-2.9881,-3.0025,-3.0076,-3.0125,-3.0201,-3.0175,-3.0244,-3.0234,-3.0227,-3.0242,-3.0374,-3.0401,-3.0326,-3.0559,-3.0481,-3.0499,-3.0537,-3.0561,-3.058,-3.0572,-3.0252,0,0,0,0,0,-2.9887,-2.9969,-3.0008,-3.0132,-3.0159,-3.0175,-3.0222,-3.0215,-3.0268,-3.029,-3.0322,-3.0376,-3.0456,-3.0509,-3.0585,-3.0739,-3.0753,-3.081,-3.0829,-3.0844,-3.0861,-3.0947,-3.0974,-3.069,-3.069,-3.0689,0,0,-2.9959,-2.9996,-3.0049,-3.0149,-3.0188,-3.0274,-3.0194,-3.0288,-3.0353,-3.0304,-3.0427,-3.0452,-3.0512,-3.0654,-3.0718,-3.068,-3.0942,-3.086,-3.0872,-3.0881,-3.0962,-3.0989,-3.1013,-3.0698,-3.0696,-3.0695,0,0,-3.0135,-3.0171,-3.0279,-3.0319,-3.0378,-3.0388,-3.0414,-3.0466,-3.0481,-3.0604,-3.057,-3.0646,-3.0784,-3.0829,-3.0869,-3.1062,-3.1034,-3.1086,-3.1188,-3.1272,-3.1294,-3.1314,-3.1386,-3.1411,-3.1102,-3.1102,-3.1102,0,-3.0218,-3.0346,-3.0337,-3.0435,-3.0481,-3.0439,-3.0549,-3.0589,-3.0671,-3.0704,-3.066,-3.0833,-3.087,-3.1023,-3.107,-3.1103,-3.1134,-3.1081,-3.1291,-3.1311,-3.133,-3.1398,-3.1425,-3.1109,-3.1108,-3.1107,-3.1107,0,-3.0446,-3.0535,-3.0615,-3.0695,-3.0749,-3.0852,-3.086,-3.0916,-3.0904,-3.0919,-3.1045,-3.1088,-3.1172,-3.1207,-3.1197,-3.1359,-3.1335,-3.1291,-3.1214,-3.1363,-3.1428,-3.1453,-3.1118,-3.1115,-3.1113,-3.1112,0,0,-3.0679,-3.0751,-3.0781,-3.0817,-3.0879,-3.0949,-3.105,-3.1132,-3.1181,-3.1238,-3.1325,-3.1442,-3.1403,-3.1449,-3.1443,-3.1515,-3.1669,-3.1463,-3.1465,-3.1503,-3.1854,-3.1889,-3.1919,-3.1648,-3.1653,-3.1657,-3.185,0,-3.0862,-3.1039,-3.1034,-3.12,-3.1283,-3.1244,-3.1333,-3.1381,-3.1398,-3.1471,-3.1489,-3.1574,-3.1514,-3.1542,-3.1612,-3.1635,-3.174,-3.1621,-3.1732,-3.1736,-3.1722,-3.1952,-3.1989,-3.2169,-3.1874,-3.1879,-3.1882,0,-3.11,-3.1165,-3.1339,-3.1389,-3.1424,-3.1504,-3.1579,-3.1649,-3.1703,-3.171,-3.1761,-3.1743,-3.1848,-3.1765,-3.191,-3.183,-3.1874,-3.1893,-3.1899,-3.1913,-3.1821,-3.1975,-3.2226,-3.2255,-3.1921,-3.1917,-3.1915,0,-3.1257,-3.1387,-3.1508,-3.154,-3.1601,-3.1658,-3.1686,-3.1735,-3.1785,-3.1851,-3.1883,-3.196,-3.2003,-3.2064,-3.2068,-3.2006,-3.2215,-3.2132,-3.2226,-3.2227,-3.2275,-3.2273,-3.2541,-3.2298,-3.2298,-3.2297,-3.2297,0,-3.1464,-3.1573,-3.158,-3.1655,-3.1776,-3.1768,-3.1889,-3.1911,-3.1955,-3.2035,-3.2005,-3.2081,-3.208,-3.2157,-3.2161,-3.2282,-3.2301,-3.2311,-3.2312,-3.2316,-3.2316,-3.2348,-3.2337,-3.2304,-3.2303,-3.2301,-3.23,0,-3.1661,-3.167,-3.18,-3.1846,-3.186,-3.1948,-3.1988,-3.2061,-3.2073,-3.2175,-3.2198,-3.2219,-3.2309,-3.2317,-3.2422,-3.2424,-3.2572,-3.2557,-3.2554,-3.2553,-3.2648,-3.264,-3.2949,-3.2991,-3.2718,-3.272,-3.2722,0,-3.1795,-3.1877,-3.1932,-3.1983,-3.2015,-3.2097,-3.2147,-3.2142,-3.2196,-3.2264,-3.2329,-3.2415,-3.2485,-3.263,-3.2656,-3.2736,-3.2725,-3.2827,-3.2737,-3.2739,-3.2731,-3.2727,-3.2737,-3.2846,-3.2849,-3.2852,-3.2854,0,-3.2032,-3.2032,-3.2105,-3.218,-3.2241,-3.23,-3.2355,-3.2399,-3.2401,-3.2463,-3.2554,-3.2608,-3.2714,-3.2801,-3.288,-3.291,-3.2885,-3.2881,-3.2908,-3.2916,-3.2912,-3.2919,-3.2606,-3.2875,-3.2873,-3.2871,-3.287,-3.2869,-3.2204,-3.2276,-3.2326,-3.2409,-3.245,-3.2502,-3.2573,-3.2594,-3.2669,-3.2755,-3.2747,-3.2848,-3.2901,-3.3004,-3.304,-3.312,-3.3086,-3.3124,-3.3134,-3.3145,-3.3156,-3.2896,-3.3134,-3.3133,-3.3132,-3.3132,-3.3132,0,-3.2443,-3.2472,-3.2548,-3.2626,-3.2692,-3.2658,-3.2717,-3.2775,-3.2864,-3.2915,-3.2983,-3.3089,-3.3173,-3.3204,-3.3287,-3.3346,-3.3336,-3.3368,-3.3366,-3.3374,-3.318,-3.315,-3.3375,-3.3375,-3.3374,-3.3374,-3.3374,-3.3374,-3.2575,-3.2696,-3.2702,-3.2843,-3.2872,-3.2971,-3.3008,-3.3057,-3.3097,-3.3216,-3.3285,-3.3304,-3.3348,-3.3434,-3.351,-3.3517,-3.3551,-3.3589,-3.3592,-3.3411,-3.3387,-3.3364,-3.3336,-3.3595,-3.3596,-3.3779,-3.3781,-3.3782]},{"header":{"parameterUnit":"m.s-1","parameterCategory":1,"la1":30.2991,"la2":30.254,"lo1":-89.0895,"lo2":-89.0444,"dy":0.0017,"dx":0.0017,"nx":28,"ny":28,"refTime":"2023-09-30T09:00:00:Z","depth":0,"parameterNumber":3,"parameterNumberName":"V-component_of_WINDS"},"data":[0,0,0,0,0,0,0,0,0,0,0,0,0,0,0,0,0,0,0,0,0,0,0,0,0,0,0,0,0,0,0,0,0,0,0,0,0,0,0,0,0,0,0,0,0,0,0,0,0,0,0,0,0,0,0,0,0,0,-1.9723,-1.9722,0,-1.9677,-1.9676,-1.9676,-1.9636,-1.9636,-1.9635,-1.9635,-1.9587,-1.9587,-1.9586,0,0,0,0,0,0,0,0,0,0,0,0,0,-1.9774,-1.9773,-1.9723,-1.9722,-1.9722,-1.9677,-1.9676,-1.9676,-1.9636,-1.9636,-1.9635,-1.9635,-1.9588,-1.9587,-1.9586,0,0,0,0,0,0,0,0,0,0,0,0,0,-1.9743,-1.9773,-1.9723,-1.9697,-1.9694,-1.9677,-1.9676,-1.9676,-1.9637,-1.9636,-1.9635,-1.9635,-1.9588,-1.9587,-1.9586,-1.9591,0,0,-1.9582,-1.9581,0,0,0,0,0,0,0,0,-1.9744,-1.9741,-1.9701,-1.9698,-1.9695,-1.9662,-1.9677,-1.9647,-1.9637,-1.9658,-1.9635,-1.9634,-1.9613,-1.9609,-1.9602,-1.9589,-1.9587,-1.9582,-1.9581,-1.958,-1.958,0,0,0,0,0,0,0,-1.9747,-1.9742,-1.9705,-1.9701,-1.9697,-1.9686,-1.9681,-1.9671,-1.964,-1.9656,-1.9653,-1.9649,-1.9611,-1.9603,-1.9601,-1.9586,-1.9582,-1.958,-1.958,-1.9579,-1.9572,-1.9573,0,0,0,0,0,0,-1.9753,-1.9745,-1.9706,-1.9703,-1.9719,-1.9686,-1.968,-1.9673,-1.964,-1.9634,-1.9649,-1.9647,-1.9606,-1.9602,-1.9599,-1.9601,-1.958,-1.9579,-1.9578,-1.9572,-1.9572,-1.9573,0,0,0,0,0,0,-1.9754,-1.975,-1.9708,-1.9723,-1.9717,-1.9686,-1.9678,-1.9673,-1.9665,-1.9634,-1.9628,-1.9647,-1.9605,-1.9601,-1.9593,-1.9599,-1.9578,-1.9577,-1.9571,-1.9572,-1.9573,-1.9607,0,0,0,0,0,0,-1.9756,-1.9751,-1.9753,-1.9723,-1.9716,-1.9703,-1.9679,-1.9672,-1.9663,-1.966,-1.9631,-1.9626,-1.9604,-1.9595,-1.9591,-1.9597,-1.9576,-1.957,-1.9571,-1.9572,-1.9605,-1.9609,-1.9613,0,0,0,0,0,-1.9758,-1.9765,-1.9753,-1.9749,-1.9719,-1.9704,-1.97,-1.9675,-1.9664,-1.9665,-1.9645,-1.9627,-1.9599,-1.9594,-1.959,-1.9596,-1.957,-1.9571,-1.9572,-1.9604,-1.9609,-1.9613,0,0,0,0,0,0,-1.9796,-1.9761,-1.9747,-1.9745,-1.9728,-1.9697,-1.9699,-1.9681,-1.9667,-1.9664,-1.9634,-1.9628,-1.9623,-1.9608,-1.9604,-1.9598,-1.9582,-1.9582,-1.9607,-1.9611,-1.9615,-1.9618,-1.9575,0,0,0,0,0,-1.9805,-1.9796,-1.9765,-1.9766,-1.9758,-1.973,-1.9723,-1.9705,-1.9686,-1.9678,-1.9658,-1.9639,-1.9626,-1.9618,-1.9604,-1.9603,-1.9595,-1.9605,-1.9608,-1.9611,-1.9612,-1.9608,-1.9611,-1.9577,-1.9577,-1.9577,0,0,-1.9822,-1.9801,-1.9798,-1.9773,-1.9758,-1.9749,-1.9724,-1.9716,-1.9708,-1.9677,-1.9668,-1.9652,-1.9629,-1.9624,-1.9621,-1.9612,-1.9619,-1.9613,-1.9616,-1.9614,-1.961,-1.9613,-1.9616,-1.9578,-1.9578,-1.9578,0,0,-1.9847,-1.9832,-1.983,-1.9815,-1.9791,-1.9772,-1.9772,-1.9743,-1.9731,-1.9722,-1.9697,-1.9687,-1.9666,-1.965,-1.964,-1.9658,-1.9639,-1.9654,-1.9672,-1.9669,-1.9671,-1.9674,-1.9678,-1.9681,-1.9655,-1.9655,-1.9655,0,-1.9871,-1.9857,-1.9831,-1.9824,-1.9813,-1.9784,-1.9781,-1.9767,-1.9741,-1.9734,-1.9724,-1.9695,-1.9678,-1.9668,-1.9672,-1.9665,-1.9662,-1.9657,-1.9673,-1.9675,-1.9677,-1.9681,-1.9683,-1.9657,-1.9656,-1.9656,-1.9656,0,-1.9887,-1.9877,-1.9878,-1.9853,-1.9842,-1.9838,-1.981,-1.9802,-1.9785,-1.9767,-1.9756,-1.9734,-1.9715,-1.9711,-1.9695,-1.9698,-1.9693,-1.9679,-1.9662,-1.9682,-1.9686,-1.9687,-1.9659,-1.9659,-1.9658,-1.9658,0,0,-1.9936,-1.9895,-1.9896,-1.9883,-1.9855,-1.9846,-1.9839,-1.982,-1.9813,-1.9796,-1.9788,-1.977,-1.9756,-1.9744,-1.9725,-1.9722,-1.9736,-1.9708,-1.9707,-1.9713,-1.9735,-1.9745,-1.9748,-1.9723,-1.9724,-1.9724,-1.9737,0,-1.9956,-1.9942,-1.9918,-1.9912,-1.9901,-1.9873,-1.9866,-1.9847,-1.983,-1.9818,-1.9798,-1.9785,-1.9768,-1.976,-1.9756,-1.9735,-1.9739,-1.9734,-1.9715,-1.9714,-1.972,-1.975,-1.9761,-1.9774,-1.9738,-1.9738,-1.9738,0,-1.9978,-1.9961,-1.9954,-1.9924,-1.9919,-1.9914,-1.9893,-1.9883,-1.986,-1.9847,-1.9833,-1.9812,-1.9802,-1.9787,-1.9771,-1.9768,-1.9758,-1.9747,-1.9746,-1.9743,-1.9727,-1.9746,-1.9778,-1.9779,-1.974,-1.974,-1.974,0,-2.0012,-1.9988,-1.998,-1.997,-1.9936,-1.9933,-1.9918,-1.9895,-1.9884,-1.9866,-1.9859,-1.984,-1.9829,-1.9814,-1.9788,-1.978,-1.9775,-1.9759,-1.9763,-1.9763,-1.9762,-1.9763,-1.9792,-1.9758,-1.9758,-1.9758,-1.9758,0,-2.0036,-2.0033,-1.9995,-1.999,-1.9984,-1.9956,-1.9951,-1.9933,-1.9913,-1.9903,-1.9877,-1.9868,-1.9835,-1.9822,-1.9802,-1.9791,-1.9787,-1.9775,-1.9769,-1.9776,-1.9778,-1.9769,-1.9767,-1.9759,-1.9759,-1.9759,-1.9759,0,-2.0074,-2.0049,-2.0038,-2.0006,-1.9998,-1.9995,-1.9967,-1.996,-1.9941,-1.9928,-1.9924,-1.9893,-1.9876,-1.9849,-1.9824,-1.981,-1.9802,-1.9794,-1.981,-1.9806,-1.9811,-1.9811,-1.9836,-1.9837,-1.9804,-1.9804,-1.9804,0,-2.0091,-2.0087,-2.0054,-2.0046,-2.0032,-2.002,-2.0008,-1.998,-1.9969,-1.9942,-1.9938,-1.9919,-1.9902,-1.9876,-1.9851,-1.9831,-1.9821,-1.9831,-1.9818,-1.9825,-1.9819,-1.9819,-1.9818,-1.9834,-1.9834,-1.9835,-1.9835,0,-2.0122,-2.011,-2.0095,-2.0075,-2.0063,-2.0046,-2.0028,-2.0022,-1.9989,-1.9978,-1.9961,-1.9948,-1.9921,-1.9902,-1.9879,-1.9862,-1.9843,-1.984,-1.9839,-1.9846,-1.9855,-1.9849,-1.9817,-1.9839,-1.9839,-1.9838,-1.9838,-1.9838,-2.0149,-2.0143,-2.0119,-2.0103,-2.0086,-2.007,-2.0061,-2.004,-2.0025,-2.0002,-1.9986,-1.9969,-1.9944,-1.991,-1.9895,-1.988,-1.9872,-1.9872,-1.9871,-1.9872,-1.9874,-1.9858,-1.9876,-1.9876,-1.9876,-1.9876,-1.9875,0,-2.0178,-2.016,-2.0146,-2.0121,-2.0108,-2.0091,-2.007,-2.006,-2.0045,-2.0024,-2.0008,-1.9986,-1.9967,-1.994,-1.9918,-1.9911,-1.9902,-1.9907,-1.9906,-1.9902,-1.9883,-1.9885,-1.9915,-1.9915,-1.9915,-1.9915,-1.9915,-1.9915,-2.0191,-2.0181,-2.0165,-2.0145,-2.0128,-2.0111,-2.01,-2.0084,-2.0067,-2.0044,-2.0028,-2.0011,-1.9986,-1.9962,-1.9943,-1.9936,-1.9928,-1.9936,-1.9925,-1.9908,-1.9904,-1.9901,-1.9902,-1.9935,-1.9935,-1.9945,-1.9945,-1.9945]}]]